Regional Weather Roundup
Issued by NWS

Home | Current Version | Previous Version | Graphics & Text | Print | Product List | Glossary On
Versions: 1 2 3 4 5 6 7 8 9 10 11 12 13 14 15 16 17 18 19 20 21 22 23 24 25 26 27 28 29 30 31 32 33 34 35 36 37 38 39 40 41 42 43 44 45 46 47 48 49 50
000
ASUS43 KMKX 290811
RWRWI

WISCONSIN REGIONAL WEATHER ROUNDUP
NATIONAL WEATHER SERVICE MILWAUKEE/SULLIVAN WI
300 AM CDT THU SEP 29 2016

NOTE: "FAIR" INDICATES FEW OR NO CLOUDS BELOW 12,000 FEET WITH NO
SIGNIFICANT WEATHER AND/OR OBSTRUCTIONS TO VISIBILITY.

WIZ001-002-006>008-014>016-023>028-290900-
NORTHWEST WISCONSIN

CITY           SKY/WX    TMP DP  RH WIND       PRES   REMARKS
SUPERIOR ARPT  CLOUDY    47  47 100 CALM      30.44R
ASHLAND        PTCLDY    49  48  97 NE9       30.42R
HAYWARD        CLOUDY    49  47  93 N5        30.42R
SIREN          CLEAR     41  40  97 CALM      30.42R
CUMBERLAND     CLEAR     45  43  93 N3        30.40R
RICE LAKE      CLEAR     48  46  95 N3        30.41R
CHETEK         NOT AVBL
LADYSMITH      CLEAR     48  47  97 N6        30.40R
EAU CLAIRE     CLEAR     50  49  96 N7        30.36R
MENOMONIE      CLEAR     48  47  95 CALM      30.38S
NEW RICHMOND   CLEAR     44  43  99 N3        30.39S
OSCEOLA        FOG       42  42 100 CALM      30.43R VSB 3/4
$$

WIZ003>005-009-010-017-018-290900-
NORTH CENTRAL WISCONSIN

CITY           SKY/WX    TMP DP  RH WIND       PRES   REMARKS
MANITOWISH WTR NOT AVBL
ARBOR VITAE    MOCLDY    49  48  96 N5        30.38R
WOODRUFF       MOCLDY    49  48  96 N5        30.38R
RHINELANDER    CLEAR     46  46 100 N5        30.37R
EAGLE RIVER    MOCLDY    46  46 100 CALM      30.37S FOG
LAND O LAKES   CLOUDY    48  48  99 N5        30.40R FOG
PHILLIPS       MOCLDY    46  46 100 N3        30.37F
TOMAHAWK         N/A     43  42  97 NW3       30.37R FOG
MEDFORD        CLEAR    N/A N/A N/A N5        30.35R
MERRILL        CLEAR     44  44 100 N5        30.36R
$$

WIZ029-030-035-036-043>047-290900-
CENTRAL WISCONSIN

CITY           SKY/WX    TMP DP  RH WIND       PRES   REMARKS
WAUSAU         CLEAR     49  47  93 N3        30.32S
MOSINEE        CLEAR     48  46  93 N8        30.33S
MARSHFIELD     CLEAR     50  46  86 NE8       30.32S
STEVENS POINT  CLEAR     46  46 100 N3        30.33R
WAUPACA        CLEAR     52  51  95 N7        30.31R
WAUTOMA        CLEAR     52  49  89 N8        30.30R
WISC RAPIDS    CLEAR     51  49  92 NE10      30.33R
CAMP DOUGLAS   NOT AVBL
$$

WIZ011>013-019>022-031-037>040-048>050-290900-
NORTHEAST WISCONSIN

CITY           SKY/WX    TMP DP  RH WIND       PRES   REMARKS
ANTIGO         CLEAR     47  47  98 CALM      30.34S
SHAWANO        PTCLDY    53  49  89 N6        30.32R
OCONTO         NOT AVBL
STURGEON BAY   CLEAR     58  55  90 N14       30.28R
GREEN BAY      CLEAR     52  52 100 N12       30.28R
MANITOWOC      CLEAR     56  53  90 MISG      30.24R
APPLETON       CLEAR     50  50 100 N14       30.27R
CLINTONVILLE   CLEAR     50  46  87 N9        30.31R
OSHKOSH        MOCLDY    54  50  86 N17G24    30.26R
$$

WIZ032>034-041-042-053>061-290900-
SOUTHWEST WISCONSIN

CITY           SKY/WX    TMP DP  RH WIND       PRES   REMARKS
LA CROSSE      CLEAR     54  51  90 N6        30.33R
SPARTA         CLEAR     46  46 100 SE3       30.33S
VIROQUA        CLEAR     50  50 100 NE8       30.32R
BOSCOBEL       CLEAR     53  50  89 E5        30.30R
PRAIRIE DU CHI CLEAR     53  48  82 N5        30.29S
PLATTEVILLE    CLEAR     51  51 100 N13       30.25S
$$

WIZ056-057-062-063-064-067-068-290900-
SOUTH CENTRAL WISCONSIN

CITY           SKY/WX    TMP DP  RH WIND       PRES   REMARKS
REEDSBURG      NOT AVBL
BARABOO/DELLS  MOCLDY    50  48  95 N6        30.29R
LONE ROCK      CLEAR     53  49  86 N8G18     30.28R
MINERAL POINT  PTCLDY    52  50  93 N10       30.26R
MADISON        PTCLDY    52  50  93 N14       30.24R
MIDDLETON      PTCLDY    53  53 100 N10G16    30.25R
WATERTOWN      CLOUDY    56  55  99 N13       30.21R
MONROE         PTCLDY    52  50  93 N12       30.22R
JANESVILLE     MOCLDY    57  54  88 N10G18    30.18S
$$

WIZ051-052-058>065-066-070>072-290900-
SOUTHEAST WISCONSIN

CITY           SKY/WX    TMP DP  RH WIND       PRES   REMARKS
MILWAUKEE      MOCLDY    60  56  86 N22G31    30.15S
WAUKESHA       CLOUDY    55  54  94 N14G22    30.19R
MILWAUKEE/TIMM CLOUDY    59  54  82 N15G26    30.18S
RACINE         MOCLDY    57  55  93 N17G29    30.14S
BURLINGTON     PTCLDY    57  53  88 N9G21     30.15S
KENOSHA        PTCLDY    59  56  89 N14G25    30.12F
FOND DU LAC    CLOUDY    56  53  90 N13       30.26R
SHEBOYGAN      PTCLDY    56  52  86 N13       30.22R
WEST BEND      CLOUDY    57  54  88 N10G18    30.21R
JUNEAU         CLOUDY    54  52  94 N14G21    30.24R
$$

LSZ147-162-290900-
LAKE SUPERIOR

STATION/POSITION TIME  TEMP    WIND        PRES    WAVE
                       AIR SEA DIR/SP/G            HT/PER
                 (UTC) (F)     (DEG/KT/KT) (MB)    (FT/S)
W MID LAKE BUOY  0650   56 54   50/ 10/ 12 1029.6R   1/ 5
DEVILS ISLAND    0700   53      10/  8/  9 1030.3R
SAXON HARBOR     0700   51     200/  4/  4 1029.1R
$$

LMZ867-665-643>646-290900-
LAKE MICHIGAN

STATION/POSITION TIME  TEMP    WIND        PRES    WAVE
                       AIR SEA DIR/SP/G            HT/PER
                 (UTC) (F)     (DEG/KT/KT) (MB)    (FT/S)
CHAMBERS ISLAND  0700   59     350/ 19/ 22 1024.7S
N MID LAKE BUOY  0750   63 66   20/ 17/ 21 1024.5R   4/ 5
NORTHPORT PIER   0700   60      10/ 16/ 21 1025.4R
SISTER BAY       0708   58     360/ 15/ 18   N/A
KEWAUNEE LAKESHO 0700   57     360/  7/ 15 1023.5R
SHEBOYGAN LAKESH 0800   57     360/ 22/ 24 1022.7R
PORT WASHINGTON  0700   60     360/  9/ 19 1022.7
ATWATER BUOY     0800   57 54   10/ 21/ 27 1020.8R
MILWAUKEE LAKESH 0710   58     360/ 21/ 30   N/A
S MID LAKE BUOY  0750   65 69   50/ 23/ 27 1017.9R   7/ 7
KENOSHA   LAKESH 0800   59      10/ 23/ 26 1019.6R
$$

TC  - TEMPERATURE IN CELSIUS
VSB - VISIBILITY IN STATUTE MILES
WCI - WIND CHILL INDEX
HX  - HEAT INDEX




USA.gov is the U.S. government's official web portal to all federal, state and local government web resources and services.